Location: Newark
(50.0306°N, 2.3272°E)
Time: 17:18:54
(UTC+00:00)

Vanguard 1 Rocket - Pass Details

Date: 13 December 2019
Orbit: 650 x 4226 km, 34.3° (Epoch: 21 January)

Event Time Altitude Azimuth Distance (km) Brightness Sun altitude
Rises 20:02:05 0° 231° (SW) 8,155 12.7 -39.4°
Reaches altitude 10° 20:08:55 10° 225° (SW) 6,742 12.1 -40.4°
Enters shadow 20:24:10 34° 179° (S) 3,753 10.2 -42.8°
Maximum altitude 20:25:39 35° 170° (S) 3,580 - -43.0°
Drops below altitude 10° 20:35:33 10° 110° (ESE) 4,013 - -44.6°
Sets 20:38:25 0° 100° (E) 4,624 - -45.0°
